North Clarendon, VT

5:04 PM EDT on September 30, 2016 (GMT -0400)
Rutland State

Weather History for KRUT - August, 2013

Change the Weather History Date:

Monday, August 5, 2013

  Actual Average Record
Temperature  
Mean Temperature 59 °F -  
Max Temperature 70 °F - 92 °F (1988)
Min Temperature 48 °F - 40 °F (1972)
Degree Days  
Heating Degree Days 6    
Month to date heating degree days 10  
Since 1 June heating degree days 135  
Since 1 July heating degree days 28  
Cooling Degree Days 0    
Month to date cooling degree days 8  
Year to date cooling degree days 311  
Since 1 June cooling degree days 284  
Growing Degree Days 8 (Base 50)    
Moisture  
Dew Point 46 °F    
Average Humidity 67    
Maximum Humidity 100    
Minimum Humidity 34    
Precipitation  
Precipitation 0.00 in - 1.94 in (1953)
Month to date precipitation 1.25  
Year to date precipitation 15.07  
Sea Level Pressure  
Sea Level Pressure 30.02 in    
Wind  
Wind Speed 7 mph (NNW)    
Max Wind Speed 14 mph    
Max Gust Speed 23 mph    
Visibility 10 miles    
Events      
T = Trace of Precipitation, MM = Missing Value Source: NWS Daily Summary

Daily Weather History Graph

Daily Weather History Graph

Search for Another Location

Airport or City:

Trip Planner

Search our weather history database for the weather conditions in past years. The results will help you decide how hot, cold, wet, or windy it might be!

Date:

Astronomy

Aug. 05, 2013 Rise Set
Actual Time 5:45 AM EDT 8:09 PM EDT
Civil Twilight 5:13 AM EDT 8:41 PM EDT
Nautical Twilight 4:33 AM EDT 9:20 PM EDT
Astronomical Twilight 3:48 AM EDT 10:05 PM EDT
Moon 4:38 AM EDT (8/5) 7:06 PM EDT (8/5)
Length of Visible Light 15h 27m
Length of Day
14h 23m
Waning Crescent, 1% of the Moon is Illuminated
Aug 5
Waning Crescent
Aug 6
New
Aug 14
First Quarter
Aug 20
Full
Aug 28
Last Quarter

Hourly Weather History & Observations

Time (EDT) Temp. Dew Point Humidity Pressure Visibility Wind Dir Wind Speed Gust Speed Precip Events Conditions
12:15 AM 51.8 °F 51.8 °F 100% 29.96 in 10.0 mi Calm Calm - N/A   Clear
12:35 AM 51.8 °F 51.8 °F 100% 29.96 in 10.0 mi Calm Calm - N/A   Scattered Clouds
12:55 AM 51.8 °F 51.8 °F 100% 29.96 in 10.0 mi Calm Calm - N/A   Partly Cloudy
1:15 AM 51.8 °F 51.8 °F 100% 29.96 in 0.5 mi ESE 3.5 mph - N/A   Overcast
1:35 AM 51.8 °F 50.0 °F 94% 29.96 in 0.8 mi Calm Calm - N/A   Overcast
1:55 AM 51.8 °F 50.0 °F 94% 29.96 in 10.0 mi SE 3.5 mph - N/A   Mostly Cloudy
2:15 AM 51.8 °F 51.8 °F 100% 29.96 in 10.0 mi Calm Calm - N/A   Overcast
2:35 AM 51.8 °F 51.8 °F 100% 29.96 in 10.0 mi SSE 3.5 mph - N/A   Overcast
2:55 AM 51.8 °F 51.8 °F 100% 29.96 in 10.0 mi Calm Calm - N/A   Mostly Cloudy
3:15 AM 51.8 °F 50.0 °F 94% 29.97 in 10.0 mi Calm Calm - N/A   Mostly Cloudy
3:35 AM 51.8 °F 50.0 °F 94% 29.96 in 10.0 mi Calm Calm - N/A   Partly Cloudy
3:55 AM 50.0 °F 50.0 °F 100% 29.97 in 1.8 mi ESE 3.5 mph - N/A   Clear
4:15 AM 50.0 °F 48.2 °F 94% 29.97 in 10.0 mi NNW 4.6 mph - N/A   Clear
4:35 AM 51.8 °F 50.0 °F 94% 29.98 in 10.0 mi Calm Calm - N/A   Mostly Cloudy
4:55 AM 51.8 °F 48.2 °F 88% 29.98 in 10.0 mi WNW 5.8 mph - N/A   Mostly Cloudy
5:15 AM 51.8 °F 48.2 °F 88% 29.99 in 10.0 mi NW 4.6 mph - N/A   Clear
5:35 AM 50.0 °F 46.4 °F 87% 29.99 in 10.0 mi Calm Calm - N/A   Clear
5:55 AM 48.2 °F 46.4 °F 93% 30.01 in 10.0 mi Calm Calm - N/A   Clear
6:15 AM 48.2 °F 46.4 °F 93% 30.01 in 10.0 mi Calm Calm - N/A   Clear
6:35 AM 48.2 °F 46.4 °F 93% 30.01 in 10.0 mi Calm Calm - N/A   Clear
6:55 AM 48.2 °F 48.2 °F 100% 30.02 in 10.0 mi ESE 3.5 mph - N/A   Clear
7:15 AM 50.0 °F 48.2 °F 94% 30.03 in 10.0 mi Calm Calm - N/A   Clear
7:35 AM 53.6 °F 48.2 °F 82% 30.03 in 10.0 mi Calm Calm - N/A   Clear
7:55 AM 53.6 °F 48.2 °F 82% 30.04 in 10.0 mi NNE 3.5 mph - N/A   Partly Cloudy
8:15 AM 53.6 °F 48.2 °F 82% 30.04 in 10.0 mi NNE 4.6 mph - N/A   Partly Cloudy
8:35 AM 55.4 °F 48.2 °F 77% 30.04 in 10.0 mi NW 5.8 mph - N/A   Clear
8:55 AM 57.2 °F 46.4 °F 67% 30.04 in 10.0 mi NW 10.4 mph - N/A   Clear
9:15 AM 57.2 °F 44.6 °F 63% 30.04 in 10.0 mi NW 10.4 mph - N/A   Clear
9:35 AM 59.0 °F 44.6 °F 59% 30.03 in 10.0 mi NW 10.4 mph - N/A   Clear
9:55 AM 59.0 °F 44.6 °F 59% 30.04 in 10.0 mi WNW 9.2 mph - N/A   Clear
10:15 AM 60.8 °F 44.6 °F 55% 30.04 in 10.0 mi NW 11.5 mph 16.1 mph N/A   Clear
10:35 AM 60.8 °F 42.8 °F 52% 30.04 in 10.0 mi West 11.5 mph 17.3 mph N/A   Clear
10:55 AM 62.6 °F 42.8 °F 48% 30.04 in 10.0 mi WNW 8.1 mph - N/A   Clear
11:15 AM 62.6 °F 42.8 °F 48% 30.04 in 10.0 mi WNW 12.7 mph 17.3 mph N/A   Partly Cloudy
11:35 AM 62.6 °F 39.2 °F 42% 30.04 in 10.0 mi WNW 10.4 mph 16.1 mph N/A   Partly Cloudy
11:55 AM 64.4 °F 39.2 °F 40% 30.03 in 10.0 mi WNW 10.4 mph 18.4 mph N/A   Clear
12:15 PM 64.4 °F 37.4 °F 37% 30.03 in 10.0 mi NW 13.8 mph 23.0 mph N/A   Clear
12:35 PM 64.4 °F 37.4 °F 37% 30.03 in 10.0 mi WNW 12.7 mph 20.7 mph N/A   Clear
12:55 PM 66.2 °F 37.4 °F 35% 30.03 in 10.0 mi NNW 13.8 mph 20.7 mph N/A   Clear
1:15 PM 66.2 °F 39.2 °F 37% 30.02 in 10.0 mi North 12.7 mph 21.9 mph N/A   Clear
1:35 PM 66.2 °F 39.2 °F 37% 30.02 in 10.0 mi North 9.2 mph 18.4 mph N/A   Clear
1:55 PM 66.2 °F 39.2 °F 37% 30.02 in 10.0 mi NNW 8.1 mph 20.7 mph N/A   Clear
2:15 PM 66.2 °F 39.2 °F 37% 30.02 in 10.0 mi North 9.2 mph 17.3 mph N/A   Clear
2:35 PM 68.0 °F 41.0 °F 37% 30.01 in 10.0 mi NNW 9.2 mph - N/A   Clear
2:55 PM 68.0 °F 41.0 °F 37% 30.02 in 10.0 mi WNW 11.5 mph 17.3 mph N/A   Clear
3:15 PM 68.0 °F 41.0 °F 37% 30.01 in 10.0 mi North 12.7 mph 17.3 mph N/A   Clear
3:35 PM 68.0 °F 41.0 °F 37% 30.01 in 10.0 mi North 9.2 mph 16.1 mph N/A   Clear
3:55 PM 68.0 °F 39.2 °F 35% 30.01 in 10.0 mi North 12.7 mph 18.4 mph N/A   Clear
4:15 PM 68.0 °F 42.8 °F 40% 30.01 in 10.0 mi North 8.1 mph 16.1 mph N/A   Clear
4:35 PM 68.0 °F 41.0 °F 37% 30.01 in 10.0 mi NNW 10.4 mph 18.4 mph N/A   Clear
4:55 PM 68.0 °F 42.8 °F 40% 30.01 in 10.0 mi NNW 9.2 mph - N/A   Clear
5:15 PM 68.0 °F 42.8 °F 40% 30.01 in 10.0 mi NNW 10.4 mph - N/A   Clear
5:35 PM 68.0 °F 42.8 °F 40% 30.01 in 10.0 mi North 6.9 mph - N/A   Clear
5:55 PM 68.0 °F 42.8 °F 40% 30.01 in 10.0 mi NW 5.8 mph - N/A   Clear
6:15 PM 68.0 °F 44.6 °F 43% 30.01 in 10.0 mi WNW 5.8 mph - N/A   Clear
6:35 PM 68.0 °F 44.6 °F 43% 30.02 in 10.0 mi WNW 4.6 mph - N/A   Clear
6:55 PM 66.2 °F 44.6 °F 46% 30.01 in 10.0 mi NNW 3.5 mph - N/A   Clear
7:15 PM 66.2 °F 44.6 °F 46% 30.02 in 10.0 mi NNW 5.8 mph - N/A   Clear
7:35 PM 64.4 °F 44.6 °F 49% 30.02 in 10.0 mi NNW 3.5 mph - N/A   Clear
7:55 PM 64.4 °F 46.4 °F 52% 30.03 in 10.0 mi Calm Calm - N/A   Clear
8:15 PM 59.0 °F 50.0 °F 72% 30.03 in 10.0 mi SE 6.9 mph - N/A   Clear
8:35 PM 57.2 °F 48.2 °F 72% 30.04 in 10.0 mi SE 5.8 mph - N/A   Clear
8:55 PM 57.2 °F 48.2 °F 72% 30.05 in 10.0 mi SE 5.8 mph - N/A   Clear
9:15 PM 57.2 °F 48.2 °F 72% 30.07 in 10.0 mi South 3.5 mph - N/A   Clear
9:35 PM 55.4 °F 48.2 °F 77% 30.07 in 10.0 mi SE 5.8 mph - N/A   Clear
9:55 PM 55.4 °F 46.4 °F 72% 30.07 in 10.0 mi ESE 8.1 mph - N/A   Clear
10:15 PM 53.6 °F 46.4 °F 77% 30.07 in 10.0 mi SE 6.9 mph - N/A   Clear
10:35 PM 53.6 °F 46.4 °F 77% 30.07 in 10.0 mi SE 11.5 mph - N/A   Clear
10:55 PM 53.6 °F 46.4 °F 77% 30.07 in 10.0 mi SE 9.2 mph - N/A   Clear
11:15 PM 51.8 °F 46.4 °F 82% 30.07 in 10.0 mi SE 9.2 mph - N/A   Clear
11:35 PM 51.8 °F 46.4 °F 82% 30.08 in 10.0 mi SE 12.7 mph - N/A   Clear
11:55 PM 51.8 °F 46.4 °F 82% 30.08 in 10.0 mi SE 10.4 mph - N/A   Clear